M I D A S
Marine Information and Data Acquisition System
Tripno 817 of the Zeeleeuw from 2004-12-10 08:16:39 to 2004-12-10 13:07:11
Back to CruiseResearch ActivitiesStationsMapUnderway DataData graphs

EquipmentUnitsComment
TimeDGPSUTC
LatitudeDGPSDM.mWGS84
LongitudeDGPSDM.mWGS84
TemperatureSBE03/SBE38deg celciusITS90
ConductivitySBE21S/mITS90
SalinitySBE21 Practical Salinity Units
ChlorophylAChelsea fluorimeterg/lCalibrated in Aceton
Missing or incorrect values are displayed as -999
Sea surface data collected by the RV Zeeleeuw from 2004-12-10 07:56:23 to 2004-12-10 12:17:53
Time Latitude Longitude Temperature Conductivity Salinity ChlorophylA
2004-12-10 07:56:38 51°13.593 2°56.099 13.883974 0.068775 0.446637 -0.848668
2004-12-10 07:56:43 51°13.592 2°56.1 13.88383 0.068775 0.446627 -0.814958
2004-12-10 07:56:49 51°13.591 2°56.102 13.887849 0.068775 0.446627 -0.848668
2004-12-10 07:56:54 51°13.589 2°56.104 13.909277 0.068775 0.446627 -0.848668
2004-12-10 07:56:56 51°13.589 2°56.105 13.907842 0.068775 0.446627 -0.848668
2004-12-10 07:57:04 51°13.586 2°56.109 13.907842 0.068775 0.446627 -0.848668
2004-12-10 07:57:09 51°13.584 2°56.112 13.868854 0.068775 0.446618 -0.848668
2004-12-10 07:57:14 51°13.583 2°56.114 13.857657 0.068775 0.446609 -0.814958
2004-12-10 07:57:16 51°13.582 2°56.115 13.890527 0.068775 0.446609 -0.814958
2004-12-10 07:57:23 51°13.579 2°56.12 13.887992 0.068775 0.446609 -0.882377
2004-12-10 07:57:26 51°13.578 2°56.122 13.869142 0.068775 0.446609 -0.848668
2004-12-10 07:57:34 51°13.575 2°56.127 13.867563 0.068775 0.446609 -0.848668
2004-12-10 07:57:44 51°13.572 2°56.133 13.869668 0.068775 0.4466 -0.848668
2004-12-10 07:57:51 51°13.569 2°56.137 13.870529 0.068775 0.4466 -0.848668
2004-12-10 07:57:56 51°13.568 2°56.14 13.871295 0.068775 0.4466 -0.848668
2004-12-10 07:58:01 51°13.566 2°56.143 13.874501 0.068775 0.446591 -0.848668
2004-12-10 07:58:04 51°13.566 2°56.145 13.874931 0.068775 0.446591 -0.882377
2004-12-10 07:58:11 51°13.563 2°56.149 13.873352 0.068775 0.446582 -0.848668
2004-12-10 07:58:15 51°13.563 2°56.151 13.873352 0.068775 0.446582 -0.848668
2004-12-10 07:58:21 51°13.561 2°56.154 13.869811 0.068775 0.446582 -0.848668
2004-12-10 07:58:26 51°13.56 2°56.156 13.875745 0.068775 0.446573 -0.848668
2004-12-10 07:58:31 51°13.559 2°56.158 13.882012 0.068775 0.446573 -0.848668
2004-12-10 07:58:34 51°13.558 2°56.16 13.887227 0.068775 0.446564 -0.848668
2004-12-10 07:58:45 51°13.557 2°56.164 13.870864 0.068775 0.446573 -0.848668
2004-12-10 07:58:51 51°13.556 2°56.165 13.903011 0.068775 0.446555 -0.848668
2004-12-10 07:58:55 51°13.555 2°56.166 13.95259 0.068775 0.446555 -0.848668
2004-12-10 07:58:58 51°13.555 2°56.167 13.869811 0.068775 0.446564 -0.848668
2004-12-10 07:59:16 51°13.554 2°56.172 13.863495 0.068775 0.446546 -0.848668
2004-12-10 07:59:26 51°13.554 2°56.173 13.881629 0.068775 0.44651 -0.848668
2004-12-10 07:59:31 51°13.554 2°56.174 13.897272 0.068775 0.446492 -0.848668
2004-12-10 07:59:35 51°13.554 2°56.174 13.892297 0.068775 0.446474 -0.848668
2004-12-10 07:59:41 51°13.554 2°56.175 13.844446 0.068775 0.446474 -0.848668
2004-12-10 08:00:08 51°13.557 2°56.168 13.870051 0.068775 0.446519 -0.848668
2004-12-10 08:00:14 51°13.558 2°56.166 13.873352 0.068775 0.446519 -0.814958
2004-12-10 08:00:18 51°13.559 2°56.164 13.829749 0.068775 0.446528 -0.814958
2004-12-10 08:00:24 51°13.56 2°56.159 13.765324 0.068775 0.446501 -0.848668
2004-12-10 08:00:29 51°13.562 2°56.155 13.882826 0.068775 0.446474 -0.848668
2004-12-10 08:00:34 51°13.563 2°56.15 13.882826 0.068775 0.446474 -0.848668
2004-12-10 08:00:39 51°13.565 2°56.144 13.855838 0.068775 0.446438 -0.848668
2004-12-10 08:00:43 51°13.567 2°56.139 13.879716 0.068775 0.44642 -0.814958
2004-12-10 08:00:49 51°13.569 2°56.131 13.992486 0.068775 0.446402 -0.848668
2004-12-10 08:00:54 51°13.571 2°56.125 13.931128 0.068775 0.446366 -0.882377
2004-12-10 08:00:59 51°13.573 2°56.12 13.935718 0.068775 0.446357 -0.848668
2004-12-10 08:01:04 51°13.575 2°56.114 13.935718 0.068775 0.446357 -0.848668
2004-12-10 08:01:07 51°13.575 2°56.111 13.894689 0.068775 0.446357 -0.848668
2004-12-10 08:01:13 51°13.578 2°56.105 13.922331 0.068775 0.446366 -0.848668
2004-12-10 08:01:19 51°13.58 2°56.099 13.923957 0.068775 0.446384 -0.814958
2004-12-10 08:01:23 51°13.581 2°56.095 13.922235 0.068775 0.44642 -0.814958
2004-12-10 08:01:29 51°13.583 2°56.089 13.940928 0.068775 0.446447 -0.848668
2004-12-10 08:01:33 51°13.584 2°56.086 13.940928 0.068775 0.446447 -0.848668
2004-12-10 08:01:39 51°13.585 2°56.082 13.914393 0.068775 0.446474 -0.848668
2004-12-10 08:01:44 51°13.587 2°56.079 13.931176 0.068775 0.446492 -0.814958
2004-12-10 08:01:49 51°13.588 2°56.077 13.936196 0.068775 0.446501 -0.848668
2004-12-10 08:01:53 51°13.588 2°56.075 13.933853 0.068775 0.446492 -0.814958
2004-12-10 08:01:57 51°13.589 2°56.073 13.934236 0.068775 0.446483 -0.848668
2004-12-10 08:02:16 51°13.591 2°56.068 13.928929 0.068775 0.446429 -0.848668
2004-12-10 08:02:27 51°13.592 2°56.068 13.928594 0.068775 0.44642 -0.848668
2004-12-10 08:02:29 51°13.592 2°56.069 13.938873 0.068775 0.44642 -0.814958
2004-12-10 08:02:45 51°13.592 2°56.074 13.947094 0.068775 0.44642 -0.848668
2004-12-10 08:02:50 51°13.593 2°56.076 13.942983 0.068775 0.446429 -0.848668
2004-12-10 08:02:55 51°13.593 2°56.079 13.89952 0.068775 0.446429 -0.882377
2004-12-10 08:03:01 51°13.593 2°56.082 13.862825 0.068775 0.446429 -0.848668
2004-12-10 08:03:03 51°13.593 2°56.082 13.858757 0.068775 0.44642 -0.848668
2004-12-10 08:03:20 51°13.594 2°56.087 14.101973 0.068775 0.446348 -0.814958
2004-12-10 08:03:27 51°13.595 2°56.091 13.887227 0.068775 0.446303 -0.848668
2004-12-10 08:03:32 51°13.595 2°56.094 13.864739 0.068775 0.446276 -0.882377
2004-12-10 08:03:37 51°13.595 2°56.096 13.846313 0.068775 0.446276 -0.814958
2004-12-10 08:03:41 51°13.595 2°56.098 13.813421 0.068775 0.446276 -0.848668
2004-12-10 08:03:47 51°13.596 2°56.1 13.792442 0.068775 0.446294 -0.848668
2004-12-10 08:03:50 51°13.596 2°56.101 13.792442 0.068775 0.446294 -0.848668
2004-12-10 08:04:08 51°13.596 2°56.104 13.85512 0.068775 0.446348 -0.848668
2004-12-10 08:04:13 51°13.596 2°56.104 13.848994 0.068775 0.446357 -0.882377
2004-12-10 08:04:19 51°13.596 2°56.105 13.91994 0.068775 0.446384 -0.814958
2004-12-10 08:04:23 51°13.596 2°56.105 13.896315 0.068775 0.446393 -0.848668
2004-12-10 08:04:29 51°13.597 2°56.105 13.918601 0.068775 0.446393 -0.848668
2004-12-10 08:04:34 51°13.597 2°56.105 13.918601 0.068775 0.446393 -0.848668
2004-12-10 08:04:39 51°13.597 2°56.105 13.914393 0.068775 0.446384 -0.848668
2004-12-10 08:04:43 51°13.596 2°56.105 13.906838 0.068775 0.446384 -0.848668
2004-12-10 08:04:47 51°13.597 2°56.105 13.935957 0.068775 0.446375 -0.848668
2004-12-10 08:04:53 51°13.596 2°56.105 13.916497 0.068775 0.446357 -0.814958
2004-12-10 08:04:59 51°13.597 2°56.106 13.915637 0.068775 0.446348 -0.814958
2004-12-10 08:05:00 51°13.597 2°56.106 13.915637 0.068775 0.446348 -0.814958
2004-12-10 08:05:08 51°13.597 2°56.106 13.927829 0.068775 0.446357 -0.848668
2004-12-10 08:05:13 51°13.597 2°56.107 13.958708 0.068775 0.446357 -0.848668
2004-12-10 08:05:31 51°13.597 2°56.107 13.942458 0.068879 0.447031 -0.814958
2004-12-10 08:05:37 51°13.597 2°56.107 13.941836 0.068775 0.446321 -0.848668
2004-12-10 08:05:43 51°13.598 2°56.107 13.941167 0.068775 0.446321 -0.814958
2004-12-10 08:05:47 51°13.598 2°56.107 13.940593 0.068775 0.446321 -0.848668
2004-12-10 08:05:53 51°13.598 2°56.107 13.936913 0.068775 0.446312 -0.814958
2004-12-10 08:05:57 51°13.598 2°56.107 13.936913 0.068775 0.446312 -0.814958
2004-12-10 08:06:03 51°13.598 2°56.107 13.940354 0.068879 0.447013 -0.848668
2004-12-10 08:06:08 51°13.598 2°56.106 13.883974 0.068775 0.446303 -0.814958
2004-12-10 08:06:11 51°13.598 2°56.106 13.90832 0.068879 0.446995 -0.848668
2004-12-10 08:06:17 51°13.598 2°56.106 13.922522 0.068775 0.446303 -0.848668
2004-12-10 08:06:23 51°13.598 2°56.106 13.934188 0.068879 0.446995 -0.848668
2004-12-10 08:06:34 51°13.598 2°56.106 13.881486 0.068775 0.446285 -0.882377
2004-12-10 08:06:39 51°13.598 2°56.106 13.906168 0.068775 0.446267 -0.848668
2004-12-10 08:06:43 51°13.598 2°56.106 13.914346 0.068879 0.44695 -0.848668
2004-12-10 08:06:49 51°13.598 2°56.106 13.901098 0.068879 0.44695 -0.848668
2004-12-10 08:06:53 51°13.598 2°56.106 13.825297 0.068879 0.446932 -0.848668
2004-12-10 08:06:59 51°13.598 2°56.106 13.905498 0.068775 0.44624 -0.814958
2004-12-10 08:07:03 51°13.598 2°56.106 13.905498 0.068775 0.44624 -0.814958
2004-12-10 08:07:07 51°13.599 2°56.107 13.841095 0.068879 0.446941 -0.848668
2004-12-10 08:07:14 51°13.598 2°56.107 13.763934 0.068879 0.446941 -0.848668
2004-12-10 08:07:19 51°13.598 2°56.107 13.783819 0.068879 0.446941 -0.848668
2004-12-10 08:07:24 51°13.598 2°56.106 13.804369 0.068879 0.44695 -0.848668
2004-12-10 08:07:28 51°13.598 2°56.106 13.809781 0.068879 0.44695 -0.814958
2004-12-10 08:07:33 51°13.598 2°56.106 13.809781 0.068879 0.44695 -0.814958
2004-12-10 08:07:39 51°13.598 2°56.105 13.81232 0.068879 0.44695 -0.814958
2004-12-10 08:07:44 51°13.598 2°56.105 13.791772 0.068879 0.446941 -0.848668
2004-12-10 08:07:49 51°13.598 2°56.105 13.821705 0.068879 0.446923 -0.848668
2004-12-10 08:07:52 51°13.598 2°56.105 13.83267 0.068879 0.446932 -0.848668
2004-12-10 08:07:57 51°13.598 2°56.105 13.849089 0.068879 0.446941 -0.882377
2004-12-10 08:08:19 51°13.598 2°56.106 13.859714 0.068775 0.446303 -0.848668
2004-12-10 08:08:36 51°13.598 2°56.106 13.860145 0.068879 0.446995 -0.848668
2004-12-10 08:08:42 51°13.598 2°56.107 13.858183 0.068879 0.446959 -0.848668
2004-12-10 08:08:47 51°13.598 2°56.107 13.835255 0.068879 0.446932 -0.848668
2004-12-10 08:08:52 51°13.598 2°56.107 13.835255 0.068879 0.446932 -0.848668
2004-12-10 08:08:57 51°13.598 2°56.107 13.8014 0.068879 0.446896 -0.848668
2004-12-10 08:09:00 51°13.598 2°56.107 13.829414 0.068879 0.446851 -0.882377
2004-12-10 08:09:07 51°13.598 2°56.106 13.822759 0.068879 0.446815 -0.814958
2004-12-10 08:09:19 51°13.598 2°56.106 13.820652 0.068879 0.446752 -0.848668
2004-12-10 08:09:21 51°13.598 2°56.106 13.819982 0.068879 0.446734 -0.848668
2004-12-10 08:09:50 51°13.599 2°56.106 13.799436 0.068879 0.446806 -0.882377
2004-12-10 08:09:54 51°13.599 2°56.106 13.797041 0.068879 0.446815 -0.882377
2004-12-10 08:09:59 51°13.599 2°56.106 13.806189 0.068879 0.446815 -0.848668
2004-12-10 08:10:02 51°13.599 2°56.106 13.832622 0.068879 0.446815 -0.848668
2004-12-10 08:10:20 51°13.599 2°56.106 13.837026 0.068879 0.446806 -0.848668
2004-12-10 08:10:30 51°13.599 2°56.106 13.838798 0.068879 0.446797 -0.848668
2004-12-10 08:10:33 51°13.599 2°56.106 13.834968 0.068879 0.446797 -0.848668
2004-12-10 08:10:38 51°13.599 2°56.106 13.834968 0.068879 0.446797 -0.848668
2004-12-10 08:10:57 51°13.599 2°56.108 13.843872 0.068879 0.446788 -0.814958
2004-12-10 08:11:01 51°13.599 2°56.108 13.844781 0.068879 0.446788 -0.814958
2004-12-10 08:11:06 51°13.599 2°56.109 13.845787 0.068879 0.446779 -0.814958
2004-12-10 08:11:12 51°13.599 2°56.109 13.844686 0.068879 0.446779 -0.814958
2004-12-10 08:11:16 51°13.599 2°56.109 13.843489 0.068879 0.44677 -0.814958
2004-12-10 08:11:18 51°13.599 2°56.109 13.843489 0.068879 0.44677 -0.814958
2004-12-10 08:11:27 51°13.599 2°56.108 13.844398 0.068879 0.446761 -0.848668
2004-12-10 08:11:33 51°13.599 2°56.108 13.843633 0.068879 0.446761 -0.848668
2004-12-10 08:11:38 51°13.599 2°56.108 13.841766 0.068879 0.446752 -0.814958
2004-12-10 08:11:40 51°13.599 2°56.108 13.842675 0.068879 0.446743 -0.848668
2004-12-10 08:11:46 51°13.599 2°56.108 13.842436 0.068879 0.446743 -0.848668
2004-12-10 08:11:52 51°13.599 2°56.108 13.842436 0.068879 0.446743 -0.848668
2004-12-10 08:11:56 51°13.599 2°56.108 13.841095 0.068879 0.446743 -0.848668
2004-12-10 08:12:00 51°13.599 2°56.108 13.841861 0.068879 0.446743 -0.848668
2004-12-10 08:12:06 51°13.599 2°56.108 13.84033 0.068879 0.446752 -0.814958
2004-12-10 08:12:12 51°13.599 2°56.108 13.843776 0.068879 0.446752 -0.814958
2004-12-10 08:12:17 51°13.599 2°56.108 13.844303 0.068879 0.446761 -0.814958
2004-12-10 08:12:22 51°13.598 2°56.108 13.844303 0.068879 0.446761 -0.814958
2004-12-10 08:12:24 51°13.598 2°56.108 13.844734 0.068879 0.446761 -0.814958
2004-12-10 08:12:32 51°13.598 2°56.108 13.845643 0.068879 0.446761 -0.848668
2004-12-10 08:12:38 51°13.598 2°56.108 13.845452 0.068879 0.44677 -0.848668
2004-12-10 08:12:42 51°13.599 2°56.107 13.84818 0.068879 0.446761 -0.848668
2004-12-10 08:12:48 51°13.599 2°56.107 13.849807 0.068879 0.44677 -0.848668
2004-12-10 08:12:51 51°13.599 2°56.107 13.849807 0.068879 0.44677 -0.848668
2004-12-10 08:12:56 51°13.599 2°56.107 13.850047 0.068879 0.446761 -0.814958
2004-12-10 08:13:00 51°13.599 2°56.107 13.851818 0.068879 0.446752 -0.848668
2004-12-10 08:13:14 51°13.599 2°56.107 13.854306 0.068879 0.446734 -0.848668
2004-12-10 08:13:16 51°13.599 2°56.107 13.854546 0.068879 0.446734 -0.814958
2004-12-10 08:13:24 51°13.599 2°56.107 13.854976 0.068879 0.446725 -0.848668
2004-12-10 08:13:28 51°13.599 2°56.107 13.856221 0.068879 0.446725 -0.848668
2004-12-10 08:13:34 51°13.599 2°56.107 13.856221 0.068879 0.446725 -0.848668
2004-12-10 08:13:45 51°13.599 2°56.108 13.860719 0.068879 0.446707 -0.848668
2004-12-10 08:13:48 51°13.599 2°56.108 13.860767 0.068879 0.446707 -0.848668
2004-12-10 08:13:54 51°13.599 2°56.107 13.859379 0.068879 0.446698 -0.848668
2004-12-10 08:14:02 51°13.598 2°56.107 13.860193 0.068879 0.446689 -0.848668
2004-12-10 08:14:04 51°13.598 2°56.107 13.861581 0.068879 0.44668 -0.848668
2004-12-10 08:14:18 51°13.598 2°56.107 13.863974 0.068879 0.446662 -0.814958
2004-12-10 08:14:22 51°13.598 2°56.107 13.864261 0.068879 0.446653 -0.848668
2004-12-10 08:14:26 51°13.598 2°56.107 13.864261 0.068879 0.446653 -0.848668
2004-12-10 08:14:32 51°13.598 2°56.107 13.864596 0.068879 0.446644 -0.814958
2004-12-10 08:14:36 51°13.598 2°56.107 13.865696 0.068879 0.446635 -0.848668
2004-12-10 08:14:46 51°13.598 2°56.106 13.86383 0.068879 0.446617 -0.848668
2004-12-10 08:14:52 51°13.598 2°56.106 13.865266 0.068879 0.446617 -0.882377
2004-12-10 08:15:22 51°13.598 2°56.108 13.866462 0.068879 0.446581 -0.848668
2004-12-10 08:15:26 51°13.598 2°56.108 13.866605 0.068879 0.44659 -0.848668
2004-12-10 08:15:32 51°13.598 2°56.108 13.873161 0.068879 0.446572 -0.848668
2004-12-10 08:15:34 51°13.598 2°56.108 13.874596 0.068879 0.44659 -0.848668
2004-12-10 08:15:44 51°13.598 2°56.108 13.873448 0.068879 0.44659 -0.848668
2004-12-10 08:15:50 51°13.598 2°56.107 13.874405 0.068879 0.44659 -0.848668
2004-12-10 08:15:56 51°13.598 2°56.107 13.876127 0.068879 0.44659 -0.848668
2004-12-10 08:16:00 51°13.598 2°56.107 13.880912 0.068879 0.446581 -0.848668
2004-12-10 08:16:09 51°13.597 2°56.107 13.907842 0.068879 0.446581 -0.848668
2004-12-10 08:16:14 51°13.597 2°56.106 14.103785 0.068879 0.44659 -0.848668
2004-12-10 08:16:20 51°13.597 2°56.106 14.070204 0.068879 0.446599 -0.848668
2004-12-10 08:16:26 51°13.598 2°56.106 14.055794 0.068879 0.446599 -0.848668
2004-12-10 08:16:30 51°13.598 2°56.106 14.054983 0.068879 0.446599 -0.882377
2004-12-10 08:16:33 51°13.598 2°56.106 14.048731 0.068879 0.44659 -0.848668
2004-12-10 08:16:39 51°13.597 2°56.106 14.048731 0.068879 0.44659 -0.848668
2004-12-10 08:16:52 51°13.597 2°56.106 14.029351 0.068879 0.44659 -0.848668
2004-12-10 08:16:58 51°13.597 2°56.106 14.024816 0.068879 0.446599 -0.848668
2004-12-10 08:17:00 51°13.597 2°56.106 14.030354 0.068879 0.446608 -0.848668
2004-12-10 08:17:06 51°13.597 2°56.106 14.015266 0.068879 0.446608 -0.848668
2004-12-10 08:17:09 51°13.597 2°56.106 14.007148 0.068879 0.446608 -0.848668
2004-12-10 08:17:21 51°13.597 2°56.107 14.007769 0.068879 0.446608 -0.848668
2004-12-10 08:17:26 51°13.597 2°56.107 14.007435 0.068879 0.446608 -0.848668
2004-12-10 08:17:32 51°13.597 2°56.107 14.013404 0.068879 0.446599 -0.814958
2004-12-10 08:17:37 51°13.597 2°56.107 14.011924 0.068879 0.446608 -0.848668
2004-12-10 08:17:42 51°13.597 2°56.107 14.00882 0.068879 0.446599 -0.848668
2004-12-10 08:17:52 51°13.597 2°56.107 14.018656 0.068879 0.446599 -0.848668
2004-12-10 08:17:54 51°13.597 2°56.107 14.031977 0.068879 0.446599 -0.848668
2004-12-10 08:18:02 51°13.597 2°56.107 14.054839 0.068879 0.446608 -0.848668
2004-12-10 08:18:05 51°13.597 2°56.106 14.057464 0.068879 0.446608 -0.848668
2004-12-10 08:18:12 51°13.597 2°56.106 14.054171 0.068879 0.446599 -0.848668
2004-12-10 08:18:16 51°13.598 2°56.106 14.054171 0.068879 0.446599 -0.848668
2004-12-10 08:18:22 51°13.598 2°56.106 14.055603 0.068879 0.446599 -0.814958
2004-12-10 08:18:24 51°13.598 2°56.106 14.050974 0.068879 0.446581 -0.848668
2004-12-10 08:18:30 51°13.597 2°56.106 14.043194 0.068879 0.446563 -0.848668
2004-12-10 08:18:35 51°13.597 2°56.106 14.025723 0.068879 0.446563 -0.882377
2004-12-10 08:18:46 51°13.597 2°56.103 13.896602 0.068879 0.446518 -0.848668
2004-12-10 08:18:50 51°13.597 2°56.101 13.896602 0.068879 0.446518 -0.848668
2004-12-10 08:18:58 51°13.599 2°56.096 13.923144 0.068879 0.4465 -0.814958
2004-12-10 08:19:02 51°13.599 2°56.093 13.925534 0.068879 0.446473 -0.814958
2004-12-10 08:19:06 51°13.6 2°56.089 13.952399 0.068879 0.446464 -0.848668
2004-12-10 08:19:10 51°13.601 2°56.086 13.956175 0.068879 0.446446 -0.848668
2004-12-10 08:19:19 51°13.603 2°56.077 13.915637 0.068879 0.446437 -0.848668
2004-12-10 08:19:30 51°13.606 2°56.065 13.919797 0.068879 0.446437 -0.848668
2004-12-10 08:19:35 51°13.608 2°56.059 13.919797 0.068879 0.446437 -0.848668
2004-12-10 08:19:39 51°13.609 2°56.054 13.943079 0.068879 0.446437 -0.848668
2004-12-10 08:19:44 51°13.611 2°56.047 13.950296 0.068879 0.446428 -0.848668
2004-12-10 08:19:48 51°13.612 2°56.042 13.959902 0.068879 0.446437 -0.848668
2004-12-10 08:19:55 51°13.615 2°56.032 13.966688 0.068879 0.446428 -0.814958
2004-12-10 08:20:00 51°13.617 2°56.024 13.973712 0.068879 0.446428 -0.848668
2004-12-10 08:20:05 51°13.618 2°56.017 13.973712 0.068879 0.446428 -0.848668
2004-12-10 08:20:10 51°13.62 2°56.009 13.973712 0.068879 0.446437 -0.848668
2004-12-10 08:20:13 51°13.621 2°56.005 13.981977 0.068879 0.446428 -0.848668
2004-12-10 08:20:20 51°13.624 2°55.994 13.976387 0.068879 0.446437 -0.848668
2004-12-10 08:20:24 51°13.626 2°55.988 13.970845 0.068879 0.446437 -0.882377
2004-12-10 08:20:30 51°13.629 2°55.978 13.983458 0.068879 0.446455 -0.848668
2004-12-10 08:20:35 51°13.632 2°55.97 13.983458 0.068879 0.446455 -0.848668
2004-12-10 08:20:39 51°13.634 2°55.963 13.978298 0.068879 0.446464 -0.848668
2004-12-10 08:20:44 51°13.637 2°55.955 13.983362 0.068879 0.446464 -0.848668
2004-12-10 08:20:50 51°13.64 2°55.945 14.014407 0.068879 0.446473 -0.848668
2004-12-10 08:20:55 51°13.643 2°55.936 14.02515 0.068879 0.446482 -0.848668
2004-12-10 08:21:00 51°13.647 2°55.928 14.051499 0.068879 0.446482 -0.882377
2004-12-10 08:21:02 51°13.648 2°55.925 14.051499 0.068879 0.446482 -0.882377
2004-12-10 08:21:10 51°13.653 2°55.911 14.042335 0.068879 0.446491 -0.848668
2004-12-10 08:21:12 51°13.654 2°55.908 14.020471 0.068879 0.446491 -0.848668
2004-12-10 08:21:25 51°13.663 2°55.886 14.013977 0.068879 0.4465 -0.848668
2004-12-10 08:21:34 51°13.668 2°55.871 14.012783 0.068879 0.446509 -0.848668
2004-12-10 08:21:39 51°13.672 2°55.862 14.011112 0.068879 0.446518 -0.848668
2004-12-10 08:21:44 51°13.675 2°55.854 14.012163 0.068879 0.446509 -0.848668
2004-12-10 08:21:46 51°13.676 2°55.85 14.013738 0.068879 0.446509 -0.848668
2004-12-10 08:22:03 51°13.686 2°55.821 14.010014 0.068879 0.446509 -0.814958
2004-12-10 08:22:16 51°13.693 2°55.799 14.010491 0.068879 0.446509 -0.848668
2004-12-10 08:22:23 51°13.697 2°55.787 14.010491 0.068879 0.446509 -0.848668
2004-12-10 08:22:26 51°13.698 2°55.782 14.005763 0.068879 0.446509 -0.848668
2004-12-10 08:22:42 51°13.704 2°55.755 14.013261 0.068879 0.446509 -0.848668
2004-12-10 08:22:46 51°13.704 2°55.75 14.013261 0.068879 0.446509 -0.848668
2004-12-10 08:22:52 51°13.705 2°55.745 13.985178 0.068879 0.446509 -0.848668
2004-12-10 08:22:55 51°13.706 2°55.742 14.083181 0.068879 0.446518 -0.848668
2004-12-10 08:23:01 51°13.706 2°55.74 14.093436 0.068879 0.446527 -0.848668
2004-12-10 08:23:04 51°13.707 2°55.74 14.129437 0.068879 0.446536 -0.848668
2004-12-10 08:23:22 51°13.71 2°55.746 14.103976 0.068879 0.446554 -0.848668
2004-12-10 08:23:25 51°13.711 2°55.748 14.146406 0.068879 0.446545 -0.848668
2004-12-10 08:23:38 51°13.715 2°55.754 13.916593 0.068879 0.446545 -0.814958
2004-12-10 08:23:42 51°13.715 2°55.755 13.945087 0.068879 0.446545 -0.848668
2004-12-10 08:23:45 51°13.715 2°55.755 14.032693 0.068879 0.446545 -0.882377
2004-12-10 08:23:54 51°13.715 2°55.755 13.814475 0.068879 0.446545 -0.848668
2004-12-10 08:23:58 51°13.714 2°55.753 13.814475 0.068879 0.446545 -0.848668
2004-12-10 08:24:03 51°13.713 2°55.752 13.959663 0.068879 0.446527 -0.848668
2004-12-10 08:24:09 51°13.71 2°55.749 14.037705 0.068879 0.446527 -0.848668
2004-12-10 08:24:14 51°13.709 2°55.747 13.988665 0.068879 0.446518 -0.848668
2004-12-10 08:24:18 51°13.707 2°55.746 14.074021 0.068879 0.446509 -0.848668
2004-12-10 08:24:23 51°13.706 2°55.744 14.139495 0.068879 0.446509 -0.848668
2004-12-10 08:24:28 51°13.705 2°55.744 14.139495 0.068879 0.446509 -0.848668
2004-12-10 08:24:33 51°13.705 2°55.744 14.059993 0.068879 0.446509 -0.848668
2004-12-10 08:24:39 51°13.706 2°55.745 14.133441 0.068879 0.446536 -0.848668
2004-12-10 08:24:44 51°13.707 2°55.745 14.12262 0.068879 0.446545 -0.848668
2004-12-10 08:24:47 51°13.708 2°55.746 14.121666 0.068879 0.446554 -0.848668
2004-12-10 08:24:55 51°13.711 2°55.747 14.17995 0.068879 0.446581 -0.848668
2004-12-10 08:25:03 51°13.716 2°55.747 14.135157 0.068879 0.44659 -0.848668
2004-12-10 08:25:06 51°13.718 2°55.747 14.260313 0.068879 0.446608 -0.814958
2004-12-10 08:25:13 51°13.723 2°55.745 14.258743 0.068879 0.446626 -0.814958
2004-12-10 08:25:17 51°13.726 2°55.743 14.310398 0.068879 0.446635 -0.882377
2004-12-10 08:25:22 51°13.73 2°55.74 14.310398 0.068879 0.446635 -0.882377
2004-12-10 08:25:27 51°13.734 2°55.736 14.354935 0.068879 0.446644 -0.848668
2004-12-10 08:25:37 51°13.743 2°55.727 14.16399 0.068879 0.446599 -0.848668
2004-12-10 08:25:44 51°13.75 2°55.719 14.047681 0.068879 0.446554 -0.814958
2004-12-10 08:25:45 51°13.751 2°55.718 14.00753 0.068879 0.446518 -0.882377
2004-12-10 08:25:52 51°13.758 2°55.709 14.012974 0.068879 0.446509 -0.848668
2004-12-10 08:25:58 51°13.765 2°55.702 14.012974 0.068879 0.446509 -0.848668
2004-12-10 08:26:03 51°13.771 2°55.695 13.993298 0.068879 0.446509 -0.882377
2004-12-10 08:26:08 51°13.778 2°55.688 13.971466 0.068879 0.446527 -0.848668
2004-12-10 08:26:13 51°13.785 2°55.68 13.963486 0.068879 0.446545 -0.848668
2004-12-10 08:26:15 51°13.788 2°55.676 13.937199 0.068879 0.446572 -0.848668
2004-12-10 08:26:29 51°13.81 2°55.654 13.927829 0.068879 0.446617 -0.814958
2004-12-10 08:26:32 51°13.815 2°55.649 13.957513 0.068879 0.446626 -0.848668
2004-12-10 08:26:38 51°13.825 2°55.64 13.957513 0.068879 0.446626 -0.848668
2004-12-10 08:26:45 51°13.837 2°55.627 13.971514 0.068879 0.446626 -0.814958
2004-12-10 08:26:56 51°13.857 2°55.611 13.992343 0.068879 0.446617 -0.848668
2004-12-10 08:26:58 51°13.86 2°55.608 13.993011 0.068879 0.446617 -0.848668
2004-12-10 08:27:14 51°13.89 2°55.586 14.019086 0.068879 0.446644 -0.848668
2004-12-10 08:27:20 51°13.902 2°55.577 14.00051 0.068879 0.446644 -0.882377
2004-12-10 08:27:23 51°13.908 2°55.572 14.016651 0.068879 0.446644 -0.848668
2004-12-10 08:27:27 51°13.915 2°55.566 14.011112 0.068879 0.446644 -0.882377
2004-12-10 08:27:38 51°13.936 2°55.551 13.993537 0.068879 0.446635 -0.848668
2004-12-10 08:27:44 51°13.947 2°55.542 14.003901 0.068879 0.446635 -0.882377
2004-12-10 08:27:55 51°13.969 2°55.526 14.008868 0.068879 0.446626 -0.848668
2004-12-10 08:28:00 51°13.98 2°55.521 14.006193 0.068879 0.446626 -0.848668
2004-12-10 08:28:05 51°13.99 2°55.515 14.025723 0.068879 0.446626 -0.882377
2004-12-10 08:28:10 51°14.001 2°55.508 14.025723 0.068879 0.446626 -0.882377
2004-12-10 08:28:15 51°14.011 2°55.5 14.02324 0.068879 0.446626 -0.848668
2004-12-10 08:28:21 51°14.023 2°55.49 14.017224 0.068879 0.446626 -0.814958
2004-12-10 08:28:24 51°14.029 2°55.485 14.020757 0.068879 0.446635 -0.814958
2004-12-10 08:28:28 51°14.037 2°55.479 14.012067 0.068879 0.446635 -0.848668
2004-12-10 08:28:38 51°14.059 2°55.464 13.995829 0.068879 0.446626 -0.848668
2004-12-10 08:28:42 51°14.067 2°55.458 14.038278 0.068879 0.446626 -0.882377
2004-12-10 08:28:51 51°14.087 2°55.445 14.023574 0.068879 0.446626 -0.848668
2004-12-10 08:29:00 51°14.107 2°55.432 13.958803 0.068879 0.446617 -0.848668
2004-12-10 08:29:04 51°14.115 2°55.425 13.958803 0.068879 0.446617 -0.848668
2004-12-10 08:29:10 51°14.127 2°55.413 14.054314 0.068879 0.446617 -0.848668
2004-12-10 08:29:14 51°14.136 2°55.406 14.08132 0.068879 0.446617 -0.814958
2004-12-10 08:29:19 51°14.147 2°55.398 14.055651 0.068879 0.446626 -0.814958
2004-12-10 08:29:24 51°14.158 2°55.389 14.083658 0.068879 0.446626 -0.848668
2004-12-10 08:29:30 51°14.171 2°55.378 14.087521 0.068879 0.446626 -0.848668
2004-12-10 08:29:34 51°14.18 2°55.37 14.087521 0.068879 0.446626 -0.848668
2004-12-10 08:29:38 51°14.188 2°55.361 14.081559 0.068879 0.446635 -0.848668
2004-12-10 08:29:43 51°14.198 2°55.349 14.102831 0.068879 0.446635 -0.848668
2004-12-10 08:29:49 51°14.21 2°55.334 14.146406 0.068879 0.446635 -0.848668
2004-12-10 08:30:00 51°14.232 2°55.305 14.063572 0.068879 0.446617 -0.848668
2004-12-10 08:30:05 51°14.242 2°55.291 14.063572 0.068879 0.446617 -0.848668
2004-12-10 08:30:06 51°14.244 2°55.288 14.017654 0.068879 0.446608 -0.848668
2004-12-10 08:30:14 51°14.26 2°55.263 14.076931 0.068879 0.44659 -0.848668
2004-12-10 08:30:25 51°14.28 2°55.225 13.969316 0.068879 0.446572 -0.814958
2004-12-10 08:30:35 51°14.301 2°55.19 14.061472 0.068879 0.446554 -0.848668
2004-12-10 08:30:39 51°14.309 2°55.176 14.061472 0.068879 0.446554 -0.848668
2004-12-10 08:30:50 51°14.33 2°55.134 14.019611 0.068879 0.446545 -0.848668
2004-12-10 08:30:54 51°14.337 2°55.118 14.060423 0.068879 0.446563 -0.848668
2004-12-10 08:31:00 51°14.346 2°55.093 14.058132 0.068879 0.446572 -0.848668
2004-12-10 08:31:06 51°14.356 2°55.068 14.008629 0.068879 0.446572 -0.848668
2004-12-10 08:31:10 51°14.363 2°55.051 14.008629 0.068879 0.446572 -0.848668
2004-12-10 08:31:16 51°14.372 2°55.026 13.927829 0.068879 0.446554 -0.848668
2004-12-10 08:31:20 51°14.377 2°55.008 14.092673 0.068879 0.446563 -0.848668
2004-12-10 08:31:26 51°14.384 2°54.98 14.365007 0.068879 0.44659 -0.848668
2004-12-10 08:31:30 51°14.387 2°54.96 14.283909 0.068879 0.446608 -0.848668
2004-12-10 08:31:34 51°14.39 2°54.939 13.983744 0.068879 0.446437 -0.814958
2004-12-10 08:31:46 51°14.399 2°54.878 13.981499 0.068879 0.446266 -0.814958
2004-12-10 08:31:56 51°14.403 2°54.825 14.114181 0.068879 0.446204 -0.848668
2004-12-10 08:32:10 51°14.405 2°54.747 13.961862 0.068879 0.446231 -0.814958
2004-12-10 08:32:14 51°14.406 2°54.724 13.940928 0.068879 0.446275 -0.814958
2004-12-10 08:32:20 51°14.406 2°54.69 13.979158 0.068879 0.446338 -0.848668
2004-12-10 08:32:23 51°14.407 2°54.673 13.963391 0.068879 0.44641 -0.848668
2004-12-10 08:32:29 51°14.409 2°54.638 14.024147 0.068879 0.446482 -0.848668
2004-12-10 08:32:34 51°14.409 2°54.609 14.201573 0.068879 0.446581 -0.814958
2004-12-10 08:32:41 51°14.41 2°54.569 14.201573 0.068879 0.446581 -0.814958
2004-12-10 08:32:46 51°14.409 2°54.54 14.041571 0.068879 0.446608 -0.814958
2004-12-10 08:32:50 51°14.408 2°54.517 14.249987 0.068879 0.446626 -0.814958
2004-12-10 08:32:54 51°14.406 2°54.495 14.302172 0.068983 0.447335 -0.814958
2004-12-10 08:32:59 51°14.403 2°54.467 14.220857 0.068879 0.446572 -0.814958
2004-12-10 08:33:04 51°14.399 2°54.439 14.265452 0.068879 0.446473 -0.814958
2004-12-10 08:33:08 51°14.395 2°54.417 14.265452 0.068879 0.446473 -0.814958
2004-12-10 08:33:13 51°14.389 2°54.391 14.13735 0.068879 0.44632 -0.848668
2004-12-10 08:33:20 51°14.38 2°54.354 14.113608 0.068879 0.446213 -0.848668
2004-12-10 08:33:24 51°14.374 2°54.334 14.097681 0.068879 0.446141 -0.848668
2004-12-10 08:33:30 51°14.365 2°54.303 14.006623 0.068983 0.446786 -0.848668
2004-12-10 08:33:35 51°14.357 2°54.277 14.059182 0.068879 0.446105 -0.848668
2004-12-10 08:33:40 51°14.35 2°54.251 14.059182 0.068879 0.446105 -0.848668
2004-12-10 08:33:50 51°14.334 2°54.2 14.032263 0.068879 0.44624 -0.848668
2004-12-10 08:33:57 51°14.323 2°54.164 14.139638 0.068983 0.447038 -0.848668
2004-12-10 08:33:59 51°14.32 2°54.153 14.014311 0.068983 0.44711 -0.848668
2004-12-10 08:34:06 51°14.308 2°54.118 13.986658 0.068983 0.447182 -0.848668
2004-12-10 08:34:12 51°14.298 2°54.087 13.995304 0.068983 0.4472 -0.882377
2004-12-10 08:34:16 51°14.292 2°54.067 13.995304 0.068983 0.4472 -0.882377
2004-12-10 08:34:22 51°14.282 2°54.036 13.966783 0.068983 0.447191 -0.848668
2004-12-10 08:34:26 51°14.275 2°54.015 14.026582 0.068983 0.447182 -0.814958
2004-12-10 08:34:30 51°14.269 2°53.995 14.081129 0.068983 0.447128 -0.848668
2004-12-10 08:34:37 51°14.256 2°53.96 14.282958 0.068983 0.44711 -0.814958
2004-12-10 08:34:42 51°14.247 2°53.936 14.171899 0.068983 0.447083 -0.848668
2004-12-10 08:34:44 51°14.243 2°53.927 14.171899 0.068983 0.447083 -0.848668
2004-12-10 08:34:56 51°14.218 2°53.87 14.083181 0.068983 0.44702 -0.814958
2004-12-10 08:35:10 51°14.191 2°53.803 14.114943 0.068983 0.446939 -0.848668
2004-12-10 08:35:14 51°14.184 2°53.783 13.959807 0.068983 0.446912 -0.814958
2004-12-10 08:35:20 51°14.173 2°53.753 14.027346 0.068983 0.446921 -0.848668
2004-12-10 08:35:24 51°14.166 2°53.734 14.062475 0.068983 0.446921 -0.848668
2004-12-10 08:35:30 51°14.155 2°53.705 14.109365 0.068983 0.446957 -0.848668
2004-12-10 08:35:35 51°14.145 2°53.68 14.156509 0.068983 0.446984 -0.848668
2004-12-10 08:35:45 51°14.127 2°53.631 14.052787 0.068983 0.447002 -0.814958
2004-12-10 08:35:53 51°14.112 2°53.591 14.054696 0.068983 0.447038 -0.848668
2004-12-10 08:36:01 51°14.097 2°53.552 14.062618 0.068983 0.447047 -0.848668
2004-12-10 08:39:18 51°13.746 2°52.576 14.089143 0.068983 0.44702 -0.882377
2004-12-10 08:51:28 51°12.498 2°48.983 14.175424 0.068879 0.446797 -0.814958
2004-12-10 08:51:38 51°12.482 2°48.934 14.279105 0.068879 0.446806 -0.848668
2004-12-10 09:13:50 51°10.496 2°42.402 14.395169 0.068671 0.44644 -0.848668
2004-12-10 09:22:36 51°9.775 2°39.809 7.851729 3.474115 33.360309 2.65711
2004-12-10 09:37:38 51°9.223 2°37.293 7.905011 3.510249 33.732338 1.072768
2004-12-10 09:43:01 51°9.259 2°37.303 7.906631 3.496975 33.591415 1.039059
2004-12-10 10:47:18 51°11.158 2°40.882 8.012854 3.523944 33.767879 1.477281
2004-12-10 10:50:38 51°11.325 2°41.04 7.986445 3.514568 33.691344 1.409862
2004-12-10 12:14:50 51°14.257 2°49.555 7.318588 3.312854 32.181526 1.645828